Location: Bonny Doon Airfield
(37.0704°N, 122.1252°W)
Time: 10:05:06
(UTC-07:00)

Tiangong 1 - Pass Details

Date: 16 October 2017
Orbit: 294 x 321 km, 42.8° (Epoch: 17 October)

Event Time Altitude Azimuth Distance (km) Brightness Sun altitude
Rises 18:52:36 0° 294° (WNW) 2,044 5.9 -5.3°
Reaches altitude 10° 18:54:36 10° 296° (WNW) 1,209 4.6 -5.7°
Maximum altitude 18:57:18 76° 22° (NNE) 324 0.6 -6.2°
Drops below altitude 10° 18:59:58 10° 110° (ESE) 1,191 3.0 -6.8°
Enters shadow 19:00:26 - 110° (ESE) 1,385 3.3 -6.9°
